Regional Weather Roundup
Issued by NWS Wakefield, VA

Home | Current Version | Previous Version | Graphics & Text | Print | Product List | Glossary On
Versions: 1 2 3 4 5 6 7 8 9 10 11 12 13 14 15 16 17 18 19 20 21 22 23 24 25 26 27 28 29 30 31 32 33 34 35 36 37 38 39 40 41 42 43 44 45 46 47 48 49 50
050
ASUS41 KAKQ 300915
RWRAKQ

REGIONAL WEATHER ROUNDUP
NATIONAL WEATHER SERVICE WAKEFIELD VA
500 AM EDT THU MAR 30 2017

Note: "fair" indicates few or no clouds below 12,000 feet with no
significant weather and/or obstructions to visibility. * = Denotes
station may not report precipitation (e.g., rain,snow,etc.),
thunder or fog.

VAZ042-051-052>054-056-301000-
NORTHERN VIRGINIA

CITY           SKY/WX    TMP DP  RH WIND       PRES   REMARKS
WASH NATIONAL  PTCLDY    48  31  51 E7        30.23R
DULLES         MOCLDY    45  31  58 NE6       30.22R
FORT BELVOIR   PTCLDY    47  28  47 CALM      30.22R
QUANTICO       MOCLDY    50  35  56 E12       30.23R
FREDERICKSBRG* CLOUDY    45  40  81 N3        30.20R
STAFFORD*      CLOUDY    46  33  61 NE5       30.25R
WARRENTON      CLOUDY    45  35  66 NE5       30.21R
CULPEPER*      CLOUDY    43  40  88 N3        30.22R
MANASSAS*      CLEAR     42  37  82 CALM      30.22R
LEESBURG*      CLOUDY    45  34  65 NE3       30.23S
WINCHESTER     CLOUDY    41  32  70 NE3       30.20R
FRONT ROYAL*   CLOUDY    46  32  57 E6        30.17F
LURAY*         CLOUDY    48  36  61 N3        30.17R
$$

VAZ048-049-060>072-079>083-301000-
CENTRAL AND SOUTH CENTRAL VIRGINIA

CITY           SKY/WX    TMP DP  RH WIND       PRES   REMARKS
RICHMOND       PTCLDY    45  43  93 N3        30.17S
CHESTERFIELD*  CLOUDY   N/A N/A N/A CALM      30.18R
PETERSBURG*    CLOUDY    43  42  95 CALM      30.17S
HANOVER        CLOUDY    43  36  76 CALM      30.19R
TAPPAHANNOCK*  MOCLDY    44  42  93 NE3       30.18S
QUINTON*       FAIR      42  42 100 CALM      30.18R
CHARLOTTSVILLE CLOUDY    50  39  66 NE3       30.18R
GORDONSVILLE*  CLOUDY    46  42  89 CALM      30.19R
ORANGE*        CLOUDY    43  41  93 CALM      30.21R
LOUISA*        CLOUDY    52  39  62 N3        30.18R
BUMPASS*       CLOUDY    46  39  76 N3        30.19R
FARMVILLE*     CLOUDY    54  45  73 CALM      30.15S
CREWE*         CLOUDY    50  48  90 CALM      30.16R
FORT PICKETT*  CLOUDY    49  42  75 NE3       30.16R
CHASE CITY*    CLOUDY    52  50  95 CALM      30.15S
CLARKSVILLE*   CLOUDY    52  48  87 SE3       30.14S
SOUTH HILL*    CLOUDY    49  48  95 CALM      30.21S
LAWRENCEVILLE* CLOUDY    48  45  89 CALM      30.16R
EMPORIA*       MOCLDY    43  43 100 CALM      30.18R
$$

VAZ088>098-301000-
SOUTHEAST VIRGINIA

CITY           SKY/WX    TMP DP  RH WIND       PRES   REMARKS
NORFOLK        CLEAR     47  45  93 CALM      30.15S
VIRGINIA BEACH CLEAR     41  38  89 CALM      30.15R
NORFOLK NAVAL  PTCLDY    43  39  86 CALM      30.17R
WEST POINT*    PTCLDY    38  37  96 CALM      30.19S
SALUDA*        FAIR      46  43  88 NE5       30.17F
NEWPORT NEWS   CLEAR     39  39 100 CALM      30.16F
LANGLEY AFB    CLEAR     43  42  99 N3        30.15R
FORT EUSTIS    CLEAR     42  40  92 CALM      30.14F
WILLIAMSBURG*  CLEAR     45  43  93 CALM      30.18S
HR EXEC AP*    FAIR      34  30  86 CALM      30.15S
FRANKLIN*      FOG       41  41  98 CALM      30.17S VSB<1/4
US460-WAKEFLD  CLEAR     39  38  96 CALM      30.17R
$$

VAZ020-022-025-037-045-301000-
WEST CENTRAL AND SOUTHWEST VIRGINIA

CITY           SKY/WX    TMP DP  RH WIND       PRES   REMARKS
STAUNTON*      CLOUDY    49  34  56 SE6       30.17R
WAYNESBORO*    MOSUNNY   47  35  62 SE8       30.15R
HOT SPRINGS VA CLOUDY    45  30  57 SE10      30.11F
LYNCHBURG      CLOUDY    54  38  54 E9        30.16S
DANVILLE       CLOUDY    57  53  86 E5        30.13R
SOUTH BOSTON*  CLOUDY    55  48  77 SE5       30.15S
MARTINSVILLE   CLOUDY    57  51  80 SE3       30.13S
ROANOKE        CLOUDY    56  44  64 SE13      30.14S
BLACKSBURG     CLOUDY    55  45  68 E7        30.14S
DUBLIN*        CLOUDY    56  49  77 E8        30.11F
MARION*        MOCLDY    58  53  82 E6        30.09S
HILLSVILLE*    CLOUDY    54  52  92 SE3       30.09S
RICHLANDS*     FAIR      57  49  73 SE10G16   30.03R
WISE*          CLEAR     59  45  58 S6        30.02S
ABINGDON*      CLEAR     58  49  73 E6        30.02R
$$

MDZ021>025-VAZ099-100-301000-
SOUTHERN MARYLAND AND THE DELMARVA PENINSULA

CITY           SKY/WX    TMP DP  RH WIND       PRES   REMARKS
PATUXENT RIVER CLOUDY    46  38  73 NE8       30.20R
BAY BRIDGE APT CLEAR     43  30  61 NE5       30.23S
LEONARDTOWN    MOCLDY    45  32  61 CALM      30.22R
DOVER          CLEAR     40  30  67 NE9       30.22R
GEORGETOWN     CLEAR     42  31  64 NE8       30.22R
EASTON         CLEAR     40  29  64 NE3       30.26R
CAMBRIDGE      CLEAR     43  30  61 NE6       30.21S
SALISBURY      CLEAR     41  32  70 NE5       30.20R
OCEAN CITY     CLEAR     44  33  65 NE10      30.20R
WALLOPS ISLAND CLEAR     46  36  68 NE17      30.20R
ACCOMACK*      CLEAR     41  37  84 NE7       30.18R
$$

NCZ012>017-030>032-301000-
NORTH CENTRAL AND EASTERN NORTH CAROLINA

CITY           SKY/WX    TMP DP  RH WIND       PRES   REMARKS
ROANOKE RAPIDS CLOUDY    46  46 100 CALM      30.16R
RALEIGH        CLOUDY    55  49  80 SE5G18    30.13S
ELIZABETH CITY CLEAR     47  45  93 N5        30.15R
AHOSKIE*       FOG       41  40  98 CALM      30.16R VSB 1/4
EDENTON*       CLEAR     42  40  93 CALM      30.15S
CURRITUCK*     CLEAR     44  44 100 CALM      30.16R
KILL DEVIL HLS NOT AVBL
MANTEO         CLEAR     44  43  97 CALM      30.14S
CAPE HATTERAS  CLEAR     54  44  69 NE7       30.12R
TARBORO*       NOT AVBL
GOLDSBORO      CLEAR     50  50  99 NE6       30.11F
WASHINGTON     PTCLDY    42  41  97 CALM      30.14F
GREENVILLE     PTCLDY    45  45 100 CALM      30.15F
NEW BERN       CLEAR     48  48 100 NE5       30.14S
WILMINGTON     CLEAR     54  53  97 NE7       30.09F
$$

VAZ048-301000-
ELSEWHERE

CITY           SKY/WX    TMP DP  RH WIND       PRES   REMARKS
HARRISBURG PA  MOCLDY    39  26  59 CALM      30.24R
BALTIMORE      PTCLDY    43  27  53 NE8       30.22S
ANNAPOLIS      CLEAR     46  30  53 NE7       30.21S
ANDREWS AFB    PTCLDY    44  28  52 NE7       30.21R
PHILADELPHIA   MOCLDY    40  24  53 NE8       30.23R
HENDERSON NC   CLOUDY    51  46  81 CALM      30.14S
GREENSBORO     CLOUDY    58  55  90 SE10      30.10R
ROCKY MOUNT    MOCLDY    49  47  93 NE3       30.15F
$$

VAZ100-301000-
MARINE

STATION/POSITION TIME  TEMP    WIND        PRES    WAVE   SWELL
                       AIR SEA DIR/SP/G            HT/PER HT/PER
                 (UTC) (F)     (DEG/KT/KT) (MB)    (FT/S) (FT/S)
CAPE MAY NJ      0848   42 46   50/  6/  9 1023.1R
LEWES DE         0848   44 48   70/ 17/ 19 1022.9R
OCEAN-CITY-INLET 0848   44 46   70/  6/ 11 1023.1R
WACHAPREAGUE VA  0848   48 58   50/ 13/ 16 1021.5R
THOMAS POINT MD  0900   46 48   40/ 15/ 17   N/A
GOOSES REEF MD   0850   48      80/ 12/ 14 1023.6R
COVE POINT MD    0848   47      60/  8/  9 1023.6R
SOLOMONS ISLAND  0848   48 49   50/  7/ 10   N/A
BISHOPS HEAD MD  0848   47 55   50/ 12/ 14 1022.8R
PINEY POINT MD   0848           80/  7/  8   N/A
POTOMAC MD       0850   49      60/ 12/ 16 1021.7R
CAMBRIDGE MD     0848   46 51   40/  9/ 10 1022.5R
LEWISETTA VA     0848   50 54  100/ 14/ 15 1022.3R
RAPPAHANNOCK LGT 0848           40/ 13/ 14 1022.1R
STINGRAY PT      0850   49      60/ 14/ 16 1021.6R
YORK RVR RNG VA  0848   51      50/ 12/ 14 1020.7R
YORKTOWN VA      0848   50 51   50/  4/  5 1021.1R
JAMESTOWN VA     0850   47     360/  2/  2   N/A
DOMINION TERM VA 0848   48     340/  1/  3 1021.2R
KIPTOPEKE VA     0848      52   60/  3/  5   N/A
CAPE HENRY VA    0848   48     330/  6/  6   N/A
WILLOUBY STN VA  0848   49     360/  4/  5 1021.9R
S CRANEY ISL VA  0848   47     360/  3/  5 1020.8S
CAPE HENRY BUOY  0842      51                N/A     3/ 6   2/11
CAPE CHARLES BUO 0851      50                N/A     3/10   2/15
OFFSHORE WE BUOY 0851      50                N/A     4/ 8   2/11
64NM E OF VA BCH 0850   49 51   10/ 12/ 16 1020.4F   5/ 8   5/ 8
DUCK PIER NC     0848   50 50   10/  5/  6 1020.2R
44100 DUCK FRF   0805      51                N/A     4/10   2/11
44056 DUCK FRF   0830      50                N/A     4/ 7   2/11
OREGON INLET NC  0842   49 56   10/  5/  6 1020.2R
HATTERAS NC      0848   56 60   40/  6/ 10 1019.4R
DIAMOND SHLS NC  0850   64 76   40/ 14/ 19 1018.9F   7/ 9   7/ 9
CAPE LOOKOUT NC  0800   62      60/ 14/ 15 1019.2F
$$




USA.gov is the U.S. government's official web portal to all federal, state and local government web resources and services.